CW7448 Weather Reports


Display with metric or nautical units.
time (UTC)temp
F
wind
direction
speed
MPH
gust
MPH
rain 1hr
in
rain 24hr
in
rain mn
in
humidity
%
barometer
mb
20170726201619 76 273 0.0 9.0 0.00 0.00 0.00 61 1020.0
20170726200648 78 251 0.0 9.0 0.00 0.00 0.00 59 1020.2
20170726192647 80 229 13.0 18.0 0.00 0.00 0.00 61 1020.5
20170726185646 78 222 0.0 17.0 0.00 0.00 0.00 62 1020.7
20170726184646 77 229 0.0 10.0 0.00 0.00 0.00 63 1020.7
20170726183646 75 277 0.0 1.0 0.00 0.00 0.00 64 1020.8
20170726173644 78 160 0.0 7.0 0.00 0.00 0.00 58 1021.7
20170726172643 78 315 4.0 9.0 0.00 0.00 0.00 57 1021.7
20170726171643 78 134 0.0 10.0 0.00 0.00 0.00 59 1022.0
20170726162642 77 130 2.0 9.0 0.00 0.00 0.00 61 1022.3
20170726153640 76 45 0.0 4.0 0.00 0.00 0.00 63 1022.6
20170726152640 76 217 4.0 8.0 0.00 0.00 0.00 60 1022.8
20170726150639 76 213 0.0 2.0 0.00 0.00 0.00 63 1022.8
20170726145639 75 223 0.0 7.0 0.00 0.00 0.00 62 1023.1
20170726144639 75 225 0.0 9.0 0.00 0.00 0.00 61 1023.3
20170726143638 75 51 0.0 1.0 0.00 0.00 0.00 62 1023.4
20170726142638 75 51 0.0 7.0 0.00 0.00 0.00 61 1023.4
20170726135637 73 75 0.0 7.0 0.00 0.00 0.00 65 1023.7
20170726134637 72 59 0.0 7.0 0.00 0.00 0.00 64 1023.7
20170726133637 71 225 0.0 4.0 0.00 0.00 0.00 63 1023.6
20170726131636 70 181 0.0 4.0 0.00 0.00 0.00 25 1023.6
20170726130636 67 237 0.0 1.0 0.00 0.00 0.00 18 1023.6
20170726124635 64 236 0.0 0.0 0.00 0.00 0.00 18 1023.5
20170726121634 61 318 0.0 0.0 0.00 0.00 0.00 19 1023.0
20170726120634 60 318 0.0 0.0 0.00 0.00 0.00 20 1023.1
20170726112633 56 318 0.0 0.0 0.00 0.00 0.00 21 1022.9
20170726103631 52 318 0.0 0.0 0.00 0.00 0.00 22 1022.7
20170726101631 52 318 0.0 0.0 0.00 0.00 0.00 23 1022.6
20170726100630 52 318 0.0 0.0 0.00 0.00 0.00 23 1022.6
20170726094630 52 318 0.0 0.0 0.00 0.00 0.00 23 1022.6
20170726093630 52 318 0.0 0.0 0.00 0.00 0.00 23 1022.5
20170726090629 53 318 0.0 0.0 0.00 0.00 0.00 23 1022.3
20170726085628 52 318 0.0 0.0 0.00 0.00 0.00 23 1022.1
20170726084628 52 318 0.0 0.0 0.00 0.00 0.00 23 1022.1
20170726083628 53 318 0.0 0.0 0.00 0.00 0.00 23 1022.1
20170726071626 54 318 0.0 0.0 0.00 0.00 0.00 23 1022.3
20170726064624 54 318 0.0 0.0 0.00 0.00 0.00 23 1022.3
20170726061624 54 318 0.0 0.0 0.00 0.00 0.00 23 1022.2
20170726054623 55 318 0.0 0.0 0.00 0.00 0.00 23 1022.5
20170726053622 55 318 0.0 0.0 0.00 0.00 0.00 23 1022.5
20170726052622 55 318 0.0 0.0 0.00 0.00 0.00 23 1022.5
20170726051622 55 318 0.0 0.0 0.00 0.00 0.00 23 1022.4
20170726044621 55 318 0.0 0.0 0.00 0.00 0.00 23 1022.5
20170726041620 55 318 0.0 0.0 0.00 0.00 0.00 24 1022.5
20170726040620 55 318 0.0 0.0 0.00 0.00 0.00 24 1022.5
20170726035619 55 318 0.0 0.0 0.00 0.00 0.00 24 1022.4
20170726031618 56 318 0.0 0.0 0.00 0.00 0.00 24 1022.6
20170726023617 56 318 0.0 0.0 0.00 0.00 0.00 26 1022.1
20170726021617 57 318 0.0 0.0 0.00 0.00 0.00 27 1021.9
20170726015616 57 318 0.0 0.0 0.00 0.00 0.00 28 1022.0
20170726013645 58 318 0.0 0.0 0.00 0.00 0.00 28 1021.9
20170726011615 58 318 0.0 0.0 0.00 0.00 0.00 31 1021.7
20170726005644 59 318 0.0 0.0 0.00 0.00 0.00 33 1021.5
20170726004614 60 318 0.0 0.0 0.00 0.00 0.00 34 1021.6
20170725234612 62 318 0.0 0.0 0.00 0.00 0.00 40 1021.3
20170725233642 62 318 0.0 0.0 0.00 0.00 0.00 40 1021.2
20170725231611 62 318 0.0 0.0 0.00 0.00 0.00 43 1021.1
20170725224641 62 318 0.0 0.0 0.00 0.00 0.00 47 1020.7
20170725215639 63 313 0.0 1.0 0.00 0.00 0.00 52 1020.5
20170725214639 63 311 0.0 6.0 0.00 0.00 0.00 50 1020.5
20170725212608 63 62 0.0 8.0 0.00 0.00 0.00 53 1020.3
20170725211638 63 172 0.0 2.0 0.00 0.00 0.00 53 1020.2
20170725210638 63 172 0.0 2.0 0.00 0.00 0.00 52 1020.1
20170725205637 63 257 0.0 4.0 0.00 0.00 0.00 53 1020.2
20170725204607 63 255 0.0 2.0 0.00 0.00 0.00 54 1020.2